Regional Weather Roundup
Issued by NWS

Home | Current Version | Previous Version | Graphics & Text | Print | Product List | Glossary Off
Versions: 1 2 3 4 5 6 7 8 9 10 11 12 13 14 15 16 17 18 19 20 21 22 23 24 25 26 27 28 29 30 31 32 33 34 35 36 37 38 39 40 41 42 43 44 45 46 47 48 49 50

840
ASUS43 KLSX 112307
RWRMO

WEATHER SUMMARY FOR MISSOURI
NATIONAL WEATHER SERVICE SPRINGFIELD MO
500 PM CST THU FEB 11 2016

NOTE: "FAIR" INDICATES FEW OR NO CLOUDS BELOW 12,000 FEET WITH NO
       SIGNIFICANT WEATHER AND/OR OBSTRUCTIONS TO VISIBILITY.
       CURRENT SKY AND/OR WEATHER CONDITIONS ARE NOT AVAILABLE FOR
       CHILLICOTHE AND FARMINGTON.

MOZ001>031-035>038-043-044-053-054-120000-
...NORTHERN AND WESTERN MISSOURI...

CITY           SKY/WX    TMP DP  RH WIND       PRES   REMARKS
KANSAS CTY INT MOCLDY    34  21  59 S7        30.19F WCI  28
KANSAS C DTWN  MOCLDY    37  20  50 VRB3      30.21F
LEE`S SUMMIT   CLOUDY    35  20  54 E3        30.20F
ST JOSEPH      CLOUDY    35  21  56 S10       30.21S WCI  27
CHILLICOTHE      N/A     30  16  56 E6        30.25R WCI  24
KIRKSVILLE     CLOUDY    23   6  48 E6        30.27R WCI  16

$$
MOZ066>068-077>081-088>096-101>105-120000-
...SOUTHWEST MISSOURI...

CITY           SKY/WX    TMP DP  RH WIND       PRES   REMARKS
SPRINGFIELD    PTCLDY    45  18  34 SE7       30.13F
JOPLIN         PTCLDY    45  23  42 E6        30.16F

$$
MOZ032>034-039>042-045>050-055>058-069>072-120000-
...CENTRAL MISSOURI...

CITY           SKY/WX    TMP DP  RH WIND       PRES   REMARKS
COLUMBIA       CLOUDY    32  18  56 E7        30.23F WCI  26
JEFFERSON CITY CLOUDY    35  19  52 SE6       30.24F
ROLLA          MOCLDY    34  20  56 E6        30.21S WCI  29
SEDALIA        PTCLDY    36  19  50 E6        30.23S
WHITEMAN AFB   MOCLDY    36  19  51 E6        30.20S
WARRENSBURG    PTCLDY    34  21  60 NE5       30.22S WCI  30
OSAGE BEACH    CLOUDY    37  19  48 E6        30.19F

$$
MOZ051-052-059>065-120000-
...EAST CENTRAL MISSOURI...

CITY           SKY/WX    TMP DP  RH WIND       PRES   REMARKS
ST LOUIS INTL  CLOUDY    30   9  41 E8        30.30R WCI  22
SPIRIT OF STL  CLOUDY    29  11  47 E5        30.30R WCI  24
ST CHARLES     CLOUDY    27   9  46 NE8       30.30F WCI  19

$$
MOZ072>076-082>087-097>100-106>115-120000-
...SOUTH CENTRAL AND SOUTHEAST MISSOURI...

CITY           SKY/WX    TMP DP  RH WIND       PRES   REMARKS
CAPE GIRARDEAU CLOUDY    35  20  54 NE9       30.28R WCI  28
FARMINGTON     PTCLDY    31  20  63 E7        30.27R WCI  24
POPLAR BLUFF   CLEAR     38  21  50 NE8       30.26R
WEST PLAINS    CLOUDY    44  18  35 CALM      30.22R

$$



USA.gov is the U.S. government's official web portal to all federal, state and local government web resources and services.